GW4674 Weather Reports


Display with metric or nautical units.
time (UTC)temp
F
wind
direction
speed
MPH
gust
MPH
rain 1hr
in
rain 24hr
in
rain mn
in
humidity
%
barometer
mb
20260903074456 66 29 13.0 16.0 0.00 0.32 0.32 99 1022.7
20260903073951 66 29 13.0 16.0 0.00 0.32 0.32 99 1022.8
20260903073446 66 29 13.0 16.0 0.00 0.32 0.32 99 1022.6
20260903072942 66 29 13.0 16.0 0.00 0.32 0.32 99 1022.6
20260903072438 66 29 13.0 16.0 0.00 0.32 0.32 99 1022.8
20260903071935 66 29 13.0 16.0 0.00 0.32 0.32 99 1022.8
20260903071430 65 29 13.0 16.0 0.00 0.32 0.32 99 1022.8
20260903070926 65 29 13.0 16.0 0.00 0.32 0.32 99 1022.9
20260903070420 65 29 13.0 16.0 0.00 0.32 0.32 99 1023.0
20260903065915 65 29 13.0 16.0 0.00 0.32 0.32 99 1022.6
20260903065414 65 29 13.0 16.0 0.00 0.32 0.32 99 1022.7
20260903064913 65 29 13.0 16.0 0.00 0.32 0.32 99 1022.9
20260903064409 65 29 13.0 16.0 0.00 0.32 0.32 99 1022.9
20260903063905 65 29 13.0 16.0 0.00 0.32 0.32 99 1022.8
20260903063400 65 29 13.0 16.0 0.00 0.32 0.32 99 1022.5
20260903062855 65 29 13.0 16.0 0.00 0.32 0.32 99 1022.4
20260903062350 65 29 13.0 16.0 0.02 0.32 0.32 99 1022.3
20260903061846 65 29 13.0 16.0 0.02 0.32 0.32 99 1022.7
20260903061344 65 29 13.0 16.0 0.05 0.32 0.32 99 1023.3
20260903060841 65 29 13.0 16.0 0.05 0.32 0.32 99 1023.7
20260903060340 65 29 13.0 16.0 0.05 0.31 0.31 99 1023.9
20260903055838 65 29 13.0 16.0 0.05 0.31 0.31 99 1023.9
20260903055337 65 29 13.0 16.0 0.05 0.30 0.30 99 1023.0
20260903054832 65 29 13.0 16.0 0.07 0.30 0.30 99 1023.0
20260903054331 65 29 13.0 16.0 0.09 0.29 0.29 99 1023.6
20260903053828 65 29 13.0 16.0 0.12 0.29 0.29 99 1024.0
20260903053323 65 29 13.0 16.0 0.12 0.28 0.28 99 1024.5
20260903052819 65 29 13.0 16.0 0.21 0.27 0.27 99 1024.9
20260903052314 65 29 13.0 16.0 0.66 0.26 0.26 99 1025.2
20260903051810 65 29 13.0 16.0 0.99 0.23 0.23 99 1025.3
20260903051305 65 29 13.0 16.0 0.76 0.13 0.13 99 1025.6
20260903050800 65 29 13.0 16.0 0.24 0.04 0.04 99 1025.5
20260903050259 65 29 13.0 16.0 0.02 0.01 0.01 99 1025.2
20260903045754 65 29 13.0 16.0 0.00 0.00 0.00 99 1024.8
20260903045250 65 29 13.0 16.0 0.02 0.00 0.00 99 1024.9
20260903044746 65 29 13.0 16.0 0.02 0.00 0.00 99 1024.7
20260903044241 65 29 13.0 16.0 0.00 0.00 0.00 99 1024.8
20260903043738 65 29 13.0 16.0 0.00 0.00 0.00 99 1025.1
20260903043238 65 29 13.0 16.0 0.00 0.00 0.00 99 1024.8
20260903042737 65 29 13.0 16.0 0.00 0.00 0.00 99 1025.0
20260903042232 65 29 13.0 16.0 0.00 0.00 0.00 99 1024.9
20260903041728 65 29 13.0 16.0 0.00 0.00 0.00 99 1024.9
20260903041224 65 29 13.0 16.0 0.00 0.00 0.00 99 1025.0
20260903040719 65 29 13.0 16.0 0.00 0.00 0.00 99 1025.1
20260903040214 65 29 13.0 16.0 0.00 0.00 0.00 99 1025.0
20260903035709 64 29 13.0 16.0 0.00 0.15 0.15 99 1025.2
20260903035205 64 29 13.0 16.0 0.00 0.15 0.15 99 1025.3
20260903034659 64 29 13.0 16.0 0.00 0.15 0.15 99 1025.4
20260903034154 64 29 13.0 16.0 0.00 0.15 0.15 99 1025.2
20260903033650 64 29 13.0 16.0 0.00 0.15 0.15 99 1025.2
20260903033149 64 29 13.0 16.0 0.00 0.15 0.15 99 1025.0
20260903032644 64 29 13.0 16.0 0.00 0.15 0.15 99 1024.6
20260903032140 64 29 13.0 16.0 0.00 0.15 0.15 99 1024.7
20260903031635 64 29 13.0 16.0 0.00 0.15 0.15 99 1025.0
20260903031130 64 29 13.0 16.0 0.00 0.15 0.15 99 1025.2
20260903030626 64 29 13.0 16.0 0.00 0.15 0.15 99 1025.2
20260903030121 64 29 13.0 16.0 0.00 0.15 0.15 99 1025.6
20260903025616 64 29 13.0 16.0 0.00 0.15 0.15 99 1025.5
20260903025112 64 29 13.0 16.0 0.00 0.15 0.15 99 1025.6
20260903024613 64 29 13.0 16.0 0.00 0.15 0.15 99 1025.6
20260903024106 64 29 13.0 16.0 0.00 0.15 0.15 99 1025.9
20260903023602 64 29 13.0 16.0 0.00 0.15 0.15 99 1025.7
20260903023057 64 29 13.0 16.0 0.00 0.15 0.15 99 1025.7
20260903022557 64 29 13.0 16.0 0.00 0.15 0.15 99 1025.6
20260903022056 64 29 13.0 16.0 0.00 0.15 0.15 99 1025.7
20260903021550 64 29 13.0 16.0 0.00 0.15 0.15 99 1025.8
20260903021045 64 29 13.0 16.0 0.00 0.15 0.15 99 1025.9
20260903020541 64 29 13.0 16.0 0.00 0.15 0.15 99 1025.9
20260903020040 64 29 13.0 16.0 0.00 0.15 0.15 99 1026.0
20260903015536 64 29 13.0 16.0 0.00 0.15 0.15 99 1026.0
20260903015031 64 29 13.0 16.0 0.00 0.15 0.15 99 1026.0
20260903014531 64 29 13.0 16.0 0.00 0.15 0.15 99 1026.2
20260903014026 64 29 13.0 16.0 0.00 0.15 0.15 99 1025.9
20260903013525 64 29 13.0 16.0 0.00 0.15 0.15 99 1026.0
20260903013020 64 29 13.0 16.0 0.00 0.15 0.15 99 1026.0
20260903012519 64 29 13.0 16.0 0.00 0.15 0.15 99 1026.2
20260903012013 64 29 13.0 16.0 0.00 0.15 0.15 99 1026.4
20260903011513 64 29 13.0 16.0 0.00 0.15 0.15 99 1026.3
20260903011008 64 29 13.0 16.0 0.00 0.15 0.15 99 1026.4
20260903010503 64 29 13.0 16.0 0.00 0.15 0.15 99 1026.3
20260903010001 64 29 13.0 16.0 0.00 0.15 0.15 99 1026.3
20260903005456 64 29 13.0 16.0 0.00 0.15 0.15 99 1026.2
20260903004952 64 29 13.0 16.0 0.00 0.15 0.15 99 1026.5
20260903004446 64 29 13.0 16.0 0.00 0.15 0.15 99 1026.4
20260903003942 64 29 13.0 16.0 0.00 0.15 0.15 99 1026.5
20260903003437 64 29 13.0 16.0 0.00 0.15 0.15 99 1026.6
20260903002932 64 29 13.0 16.0 0.00 0.15 0.15 99 1026.5
20260903002426 64 29 13.0 16.0 0.00 0.15 0.15 99 1026.2
20260903001921 64 29 13.0 16.0 0.00 0.15 0.15 99 1026.3
20260903001421 64 29 13.0 16.0 0.00 0.15 0.15 99 1026.0
20260903000920 64 29 13.0 16.0 0.00 0.15 0.15 99 1025.9
20260903000417 64 29 13.0 16.0 0.00 0.15 0.15 99 1025.9
20260902235914 64 29 13.0 16.0 0.00 0.15 0.15 99 1025.7
20260902235409 64 29 13.0 16.0 0.00 0.15 0.15 99 1025.5
20260902234908 64 29 13.0 16.0 0.00 0.15 0.15 99 1025.5
20260902234403 64 29 13.0 16.0 0.00 0.15 0.15 99 1025.6
20260902233857 64 29 13.0 16.0 0.00 0.15 0.15 99 1025.6
20260902233351 65 29 13.0 16.0 0.00 0.15 0.15 99 1025.6
20260902232850 65 29 13.0 16.0 0.00 0.15 0.15 99 1025.9
20260902232344 65 29 13.0 16.0 0.00 0.15 0.15 99 1026.2
20260902231839 65 29 13.0 16.0 0.00 0.15 0.15 99 1026.3
20260902231333 65 29 13.0 16.0 0.00 0.15 0.15 99 1026.5
20260902230828 65 29 13.0 16.0 0.00 0.15 0.15 99 1026.5
20260902230327 65 29 13.0 16.0 0.00 0.15 0.15 99 1026.2
20260902225822 65 29 13.0 16.0 0.00 0.15 0.15 99 1026.5
20260902225317 65 29 13.0 16.0 0.00 0.15 0.15 99 1026.3
20260902224815 65 29 13.0 16.0 0.00 0.15 0.15 99 1026.5
20260902224310 66 29 13.0 16.0 0.00 0.15 0.15 99 1026.9
20260902223807 66 29 13.0 16.0 0.00 0.15 0.15 99 1027.0
20260902223302 66 29 13.0 16.0 0.00 0.15 0.15 98 1027.3
20260902222800 66 29 13.0 16.0 0.00 0.15 0.15 98 1027.0
20260902222254 66 29 13.0 16.0 0.00 0.15 0.15 97 1027.2
20260902221749 66 29 13.0 16.0 0.00 0.15 0.15 97 1027.1
20260902221248 67 29 13.0 16.0 0.00 0.15 0.15 97 1027.1
20260902220744 67 29 13.0 16.0 0.00 0.15 0.15 96 1027.4
20260902220243 67 29 13.0 16.0 0.00 0.15 0.15 95 1027.3
20260902215739 67 29 13.0 16.0 0.00 0.15 0.15 95 1027.3
20260902215234 68 29 13.0 16.0 0.00 0.15 0.15 94 1027.3
20260902214730 68 29 13.0 16.0 0.00 0.15 0.15 95 1027.1
20260902214229 68 29 13.0 16.0 0.00 0.15 0.15 94 1026.9
20260902213724 68 29 13.0 16.0 0.00 0.15 0.15 98 1027.0
20260902213224 67 29 13.0 16.0 0.00 0.15 0.15 98 1026.9
20260902212724 66 29 13.0 16.0 0.00 0.15 0.15 98 1026.8
20260902212221 66 29 13.0 16.0 0.00 0.15 0.15 97 1027.1
20260902211717 66 29 13.0 16.0 0.00 0.15 0.15 96 1026.8
20260902211212 66 29 13.0 16.0 0.00 0.15 0.15 97 1026.8
20260902210712 66 29 13.0 16.0 0.00 0.15 0.15 98 1026.8
20260902210207 67 29 13.0 16.0 0.00 0.15 0.15 98 1027.0
20260902205705 66 29 13.0 16.0 0.00 0.15 0.15 97 1026.7
20260902205200 66 29 13.0 16.0 0.00 0.15 0.15 96 1026.7
20260902204656 67 29 13.0 16.0 0.00 0.15 0.15 96 1026.7
20260902204150 67 29 13.0 16.0 0.00 0.15 0.15 97 1026.8
20260902203646 67 29 13.0 16.0 0.00 0.15 0.15 97 1026.9
20260902203145 67 29 13.0 16.0 0.00 0.15 0.15 96 1026.9
20260902202635 67 29 13.0 16.0 0.00 0.15 0.15 97 1026.9
20260902202132 66 29 13.0 16.0 0.00 0.15 0.15 97 1026.9
20260902201628 66 29 13.0 16.0 0.00 0.15 0.15 98 1026.8
20260902201127 66 29 13.0 16.0 0.00 0.15 0.15 99 1026.8
20260902200622 66 29 13.0 16.0 0.00 0.15 0.15 99 1026.8
20260902200118 65 29 13.0 16.0 0.00 0.15 0.15 99 1026.8
20260902195613 65 29 13.0 16.0 0.00 0.15 0.15 99 1026.6
20260902195112 65 29 13.0 16.0 0.00 0.15 0.15 99 1026.6
20260902194606 65 29 13.0 16.0 0.00 0.15 0.15 99 1026.7
20260902194102 65 29 13.0 16.0 0.02 0.15 0.15 99 1026.9
20260902193557 65 29 13.0 16.0 0.05 0.15 0.15 99 1027.0
20260902193056 65 29 13.0 16.0 0.12 0.15 0.15 99 1026.9
20260902192555 64 29 13.0 16.0 0.19 0.14 0.14 99 1027.1
20260902192054 64 29 13.0 16.0 0.12 0.12 0.12 99 1027.1
20260902191550 64 29 13.0 16.0 0.12 0.11 0.11 98 1027.3
20260902191044 64 29 13.0 16.0 0.12 0.10 0.10 98 1027.4
20260902190540 64 29 13.0 16.0 0.17 0.09 0.09 97 1027.5
20260902190035 64 29 13.0 16.0 0.40 0.07 0.07 97 1027.8
20260902185531 65 29 13.0 16.0 0.24 0.05 0.05 95 1028.6
20260902185027 66 29 13.0 16.0 0.00 0.01 0.01 94 1028.8
20260902184526 66 29 13.0 16.0 0.00 0.01 0.01 93 1028.2
20260902184022 66 29 13.0 16.0 0.00 0.01 0.01 93 1027.6
20260902183518 67 29 13.0 16.0 0.00 0.01 0.01 91 1027.5
20260902183014 67 29 13.0 16.0 0.00 0.01 0.01 89 1027.3
20260902182510 66 29 13.0 16.0 0.00 0.01 0.01 88 1027.1
20260902182006 67 29 13.0 16.0 0.00 0.01 0.01 90 1027.1
20260902181501 67 29 13.0 16.0 0.00 0.01 0.01 88 1027.4
20260902180956 67 29 13.0 16.0 0.00 0.01 0.01 89 1027.4
20260902180451 67 29 13.0 16.0 0.00 0.01 0.01 88 1027.4
20260902175947 67 29 13.0 16.0 0.00 0.01 0.01 87 1027.5
20260902175447 67 29 13.0 16.0 0.00 0.01 0.01 87 1027.7
20260902174942 67 29 13.0 16.0 0.00 0.01 0.01 86 1027.8
20260902174439 67 29 13.0 16.0 0.00 0.01 0.01 85 1027.8
20260902173934 67 29 13.0 16.0 0.00 0.01 0.01 89 1027.8
20260902173433 67 29 13.0 16.0 0.00 0.01 0.01 89 1027.7
20260902172929 67 29 13.0 16.0 0.00 0.01 0.01 88 1027.7
20260902172428 67 29 13.0 16.0 0.00 0.01 0.01 89 1027.8
20260902171924 67 29 13.0 16.0 0.00 0.01 0.01 86 1027.7
20260902171419 67 29 13.0 16.0 0.00 0.01 0.01 84 1027.8
20260902170915 67 29 13.0 16.0 0.00 0.01 0.01 85 1028.0
20260902170410 67 29 13.0 16.0 0.00 0.01 0.01 86 1027.9
20260902165906 67 29 13.0 16.0 0.00 0.01 0.01 90 1028.1
20260902165405 67 29 13.0 16.0 0.00 0.01 0.01 90 1027.9
20260902164859 67 29 13.0 16.0 0.00 0.01 0.01 89 1027.8
20260902164354 67 29 13.0 16.0 0.00 0.01 0.01 89 1027.8
20260902163854 67 29 13.0 16.0 0.00 0.01 0.01 87 1027.6
20260902163349 67 29 13.0 16.0 0.00 0.01 0.01 86 1027.6
20260902162847 67 29 13.0 16.0 0.00 0.01 0.01 86 1027.7
20260902162343 67 29 13.0 16.0 0.00 0.01 0.01 88 1028.0
20260902161843 67 29 13.0 16.0 0.00 0.01 0.01 87 1027.8
20260902161338 67 29 13.0 16.0 0.00 0.01 0.01 88 1027.8
20260902160834 67 29 13.0 16.0 0.00 0.01 0.01 85 1027.9
20260902160329 67 29 13.0 16.0 0.00 0.01 0.01 87 1028.1
20260902155827 67 29 13.0 16.0 0.00 0.01 0.01 86 1028.0
20260902155326 67 29 13.0 16.0 0.00 0.01 0.01 86 1028.0
20260902154821 67 29 13.0 16.0 0.00 0.01 0.01 85 1027.9
20260902154317 67 29 13.0 16.0 0.00 0.01 0.01 86 1028.0
20260902153816 68 29 13.0 16.0 0.00 0.01 0.01 86 1028.0
20260902153315 68 29 13.0 16.0 0.00 0.01 0.01 85 1027.8
20260902152811 67 29 13.0 16.0 0.00 0.01 0.01 84 1027.9
20260902152308 68 29 13.0 16.0 0.00 0.01 0.01 88 1027.6
20260902151808 67 29 13.0 16.0 0.00 0.01 0.01 86 1027.7
20260902151303 67 29 13.0 16.0 0.00 0.01 0.01 88 1027.7
20260902150757 68 29 13.0 16.0 0.00 0.01 0.01 89 1027.7
20260902150254 66 29 13.0 16.0 0.00 0.01 0.01 90 1027.8
20260902145753 66 29 13.0 16.0 0.00 0.01 0.01 88 1027.8
20260902145249 66 29 13.0 16.0 0.00 0.01 0.01 90 1028.0
20260902144744 65 29 13.0 16.0 0.00 0.01 0.01 89 1027.7
20260902144240 65 29 13.0 16.0 0.00 0.01 0.01 90 1028.0
20260902143740 66 29 13.0 16.0 0.00 0.01 0.01 90 1028.1
20260902143235 65 29 13.0 16.0 0.00 0.01 0.01 91 1028.1
20260902142731 66 29 13.0 16.0 0.00 0.01 0.01 91 1028.1
20260902142227 65 29 13.0 16.0 0.00 0.01 0.01 90 1028.0
20260902141721 65 29 13.0 16.0 0.00 0.01 0.01 93 1028.1
20260902141217 64 29 13.0 16.0 0.00 0.01 0.01 92 1028.4
20260902140712 64 29 13.0 16.0 0.00 0.01 0.01 93 1028.5
20260902140212 64 29 13.0 16.0 0.00 0.01 0.01 95 1028.7
20260902135711 63 29 13.0 16.0 0.00 0.01 0.01 97 1028.5
20260902135208 63 29 13.0 16.0 0.00 0.01 0.01 97 1028.3
20260902134707 63 29 13.0 16.0 0.00 0.01 0.01 97 1028.2
20260902134202 63 29 13.0 16.0 0.00 0.01 0.01 98 1027.9
20260902133657 63 29 13.0 16.0 0.00 0.01 0.01 98 1028.0
20260902133156 62 29 13.0 16.0 0.00 0.01 0.01 98 1027.8
20260902132652 62 29 13.0 16.0 0.00 0.01 0.01 98 1027.9
20260902132147 63 29 13.0 16.0 0.00 0.01 0.01 99 1027.9
20260902131643 62 29 13.0 16.0 0.00 0.01 0.01 99 1027.6
20260902131138 62 29 13.0 16.0 0.00 0.01 0.01 99 1027.7
20260902130634 62 29 13.0 16.0 0.00 0.01 0.01 99 1027.8
20260902130129 62 29 13.0 16.0 0.00 0.01 0.01 99 1027.9
20260902125625 62 29 13.0 16.0 0.00 0.01 0.01 99 1028.0
20260902125120 62 29 13.0 16.0 0.00 0.01 0.01 99 1027.7
20260902124617 62 29 13.0 16.0 0.00 0.01 0.01 99 1027.7
20260902124117 62 29 13.0 16.0 0.00 0.01 0.01 99 1027.7
20260902123613 61 29 13.0 16.0 0.00 0.01 0.01 99 1027.4
20260902123108 61 29 13.0 16.0 0.00 0.01 0.01 99 1027.7
20260902122607 61 29 13.0 16.0 0.00 0.01 0.01 99 1027.7
20260902122103 61 29 13.0 16.0 0.00 0.01 0.01 99 1027.7
20260902121602 61 29 13.0 16.0 0.00 0.01 0.01 99 1027.8
20260902121057 61 29 13.0 16.0 0.00 0.01 0.01 99 1027.6
20260902120553 61 29 13.0 16.0 0.00 0.01 0.01 99 1027.5
20260902120049 61 29 13.0 16.0 0.00 0.01 0.01 99 1027.6
20260902115544 61 29 13.0 16.0 0.00 0.01 0.01 99 1027.5
20260902115041 61 29 13.0 16.0 0.00 0.01 0.01 99 1027.6
20260902114536 61 29 13.0 16.0 0.00 0.01 0.01 99 1027.8
20260902114036 61 29 13.0 16.0 0.00 0.01 0.01 99 1027.7
20260902113532 61 29 13.0 16.0 0.00 0.01 0.01 99 1027.7
20260902113027 61 29 13.0 16.0 0.00 0.01 0.01 99 1027.8
20260902112522 61 29 13.0 16.0 0.00 0.01 0.01 99 1027.8
20260902112019 60 29 13.0 16.0 0.00 0.01 0.01 99 1027.8
20260902111515 60 29 13.0 16.0 0.00 0.01 0.01 99 1027.7
20260902111010 60 29 13.0 16.0 0.00 0.01 0.01 99 1027.6
20260902110506 60 29 13.0 16.0 0.00 0.01 0.01 99 1027.5
20260902110001 60 29 13.0 16.0 0.00 0.01 0.01 99 1027.6
20260902105457 60 29 13.0 16.0 0.00 0.01 0.01 99 1027.6
20260902104956 60 29 13.0 16.0 0.00 0.01 0.01 99 1027.4
20260902104452 60 29 13.0 16.0 0.00 0.01 0.01 99 1027.4
20260902103952 60 29 13.0 16.0 0.00 0.01 0.01 99 1027.7
20260902103447 60 29 13.0 16.0 0.00 0.01 0.01 99 1027.6
20260902102942 60 29 13.0 16.0 0.00 0.01 0.01 99 1027.4
20260902102440 60 29 13.0 16.0 0.00 0.01 0.01 99 1027.6
20260902101936 60 29 13.0 16.0 0.00 0.01 0.01 99 1027.4
20260902101436 60 29 13.0 16.0 0.00 0.01 0.01 99 1027.2
20260902100935 60 29 13.0 16.0 0.00 0.01 0.01 99 1027.2
20260902100429 60 29 13.0 16.0 0.00 0.01 0.01 99 1027.1
20260902095924 60 29 13.0 16.0 0.00 0.01 0.01 99 1027.3
20260902095419 60 29 13.0 16.0 0.00 0.01 0.01 99 1027.2
20260902094918 60 29 13.0 16.0 0.00 0.01 0.01 99 1027.1
20260902094414 60 29 13.0 16.0 0.00 0.01 0.01 99 1026.9
20260902093914 60 29 13.0 16.0 0.00 0.01 0.01 99 1026.8
20260902093409 60 29 13.0 16.0 0.00 0.01 0.01 99 1026.8
20260902092908 60 29 13.0 16.0 0.00 0.01 0.01 99 1027.1
20260902092404 60 29 13.0 16.0 0.00 0.01 0.01 99 1027.0
20260902091859 60 29 13.0 16.0 0.00 0.01 0.01 99 1026.9
20260902091354 60 29 13.0 16.0 0.00 0.01 0.01 99 1026.9
20260902090851 60 29 13.0 16.0 0.00 0.01 0.01 99 1026.9
20260902090350 60 29 13.0 16.0 0.00 0.01 0.01 99 1026.7
20260902085849 60 29 13.0 16.0 0.00 0.01 0.01 99 1026.6
20260902085344 60 29 13.0 16.0 0.00 0.01 0.01 99 1026.6
20260902084840 60 29 13.0 16.0 0.00 0.01 0.01 99 1026.8
20260902084336 60 29 13.0 16.0 0.00 0.01 0.01 99 1026.6
20260902083831 61 29 13.0 16.0 0.00 0.01 0.01 99 1026.7
20260902083332 60 29 13.0 16.0 0.00 0.01 0.01 99 1026.6
20260902082827 61 29 13.0 16.0 0.00 0.01 0.01 99 1026.4
20260902082323 61 29 13.0 16.0 0.00 0.01 0.01 99 1026.4
20260902081819 61 29 13.0 16.0 0.02 0.01 0.01 99 1026.0
20260902081314 61 29 13.0 16.0 0.02 0.01 0.01 99 1025.9
20260902080809 61 29 13.0 16.0 0.00 0.00 0.00 99 1026.2
20260902080307 61 29 13.0 16.0 0.00 0.00 0.00 99 1026.4
20260902075805 61 29 13.0 16.0 0.00 0.00 0.00 99 1026.4
20260902075302 61 29 13.0 16.0 0.00 0.00 0.00 99 1026.2
20260902074801 61 29 13.0 16.0 0.00 0.00 0.00 99 1026.3